Time,TemperatureF,DewpointF,PressureIn,WindDirection,WindDirectionDegrees,WindSpeedMPH,WindSpeedGustMPH,Humidity,HourlyPrecipIn,Conditions,Clouds,dailyrainin,SoftwareType,DateUTC
2015-06-03 00:01:00,52.4,51.0,30.18,East,85,0.0,-999.0,93,-99.99,,,0.58,weatherlink.com 1.10,2015-06-03 04:01:00,
2015-06-03 00:16:00,52.4,51.0,30.18,East,85,0.0,-999.0,93,-99.99,,,0.00,weatherlink.com 1.10,2015-06-03 04:16:00,
2015-06-03 00:31:00,52.4,51.0,30.18,East,85,0.0,-999.0,93,-99.99,,,0.00,weatherlink.com 1.10,2015-06-03 04:31:00,
2015-06-03 00:46:00,52.4,51.0,30.17,East,86,0.0,-999.0,93,-99.99,,,0.00,weatherlink.com 1.10,2015-06-03 04:46:00,
2015-06-03 01:01:00,52.3,50.0,30.17,ESE,107,0.0,-999.0,93,-99.99,,,0.00,weatherlink.com 1.10,2015-06-03 05:01:00,
2015-06-03 01:17:00,52.3,50.0,30.17,NNE,30,0.0,-999.0,93,-99.99,,,0.00,weatherlink.com 1.10,2015-06-03 05:17:00,
2015-06-03 01:31:00,52.4,51.0,30.16,ENE,58,0.0,-999.0,93,-99.99,,,0.00,weatherlink.com 1.10,2015-06-03 05:31:00,
2015-06-03 01:46:00,52.4,51.0,30.18,ESE,118,0.0,-999.0,93,-99.99,,,0.00,weatherlink.com 1.10,2015-06-03 05:46:00,
2015-06-03 02:01:00,52.4,51.0,30.18,ESE,118,0.0,-999.0,93,-99.99,,,0.00,weatherlink.com 1.10,2015-06-03 06:01:00,
2015-06-03 02:17:00,52.4,51.0,30.18,ESE,118,0.0,-999.0,93,-99.99,,,0.00,weatherlink.com 1.10,2015-06-03 06:17:00,
2015-06-03 02:32:00,52.4,51.0,30.18,ESE,118,0.0,-999.0,93,-99.99,,,0.00,weatherlink.com 1.10,2015-06-03 06:32:00,
2015-06-03 02:47:00,52.3,50.0,30.18,East,88,0.0,-999.0,93,-99.99,,,0.00,weatherlink.com 1.10,2015-06-03 06:47:00,
2015-06-03 03:02:00,52.3,50.0,30.18,East,88,0.0,-999.0,93,-99.99,,,0.00,weatherlink.com 1.10,2015-06-03 07:02:00,
2015-06-03 03:17:00,52.2,50.0,30.18,East,88,0.0,-999.0,93,-99.99,,,0.00,weatherlink.com 1.10,2015-06-03 07:17:00,
2015-06-03 03:32:00,52.1,50.0,30.18,East,88,0.0,-999.0,93,-99.99,,,0.00,weatherlink.com 1.10,2015-06-03 07:32:00,
2015-06-03 03:47:00,51.7,50.0,30.18,East,88,1.0,-999.0,93,-99.99,,,0.00,weatherlink.com 1.10,2015-06-03 07:47:00,
2015-06-03 04:02:00,51.3,49.0,30.18,East,88,0.0,-999.0,93,-99.99,,,0.00,weatherlink.com 1.10,2015-06-03 08:02:00,
2015-06-03 04:17:00,51.0,49.0,30.17,East,88,0.0,-999.0,93,-99.99,,,0.00,weatherlink.com 1.10,2015-06-03 08:17:00,
2015-06-03 04:32:00,50.8,49.0,30.17,SE,138,2.0,-999.0,93,-99.99,,,0.00,weatherlink.com 1.10,2015-06-03 08:32:00,
2015-06-03 04:48:00,50.8,49.0,30.18,SE,136,0.0,-999.0,93,-99.99,,,0.00,weatherlink.com 1.10,2015-06-03 08:48:00,
2015-06-03 05:03:00,50.7,49.0,30.19,SSE,162,0.0,-999.0,93,-99.99,,,0.00,weatherlink.com 1.10,2015-06-03 09:03:00,
2015-06-03 05:18:00,50.5,49.0,30.19,SE,136,1.0,-999.0,93,-99.99,,,0.00,weatherlink.com 1.10,2015-06-03 09:18:00,
2015-06-03 05:33:00,50.4,49.0,30.19,SE,126,1.0,-999.0,93,-99.99,,,0.00,weatherlink.com 1.10,2015-06-03 09:33:00,